User: anonymous   Login
Location: Mason Neck State Park
(38.6428°N, 77.1981°W)
Time: 04:40:34
(UTC-04:00)
Language:

Cosmos 1400 Rocket - Orbit

View from above orbital plane
View from above orbital plane
View from above satellite
View from above satellite

Ground track
Ground track

The orbit data is extracted from the following two-line orbital elements,

1 13403U 82079B   16274.48577077  .00001322  00000-0  87069-4 0  9994
2 13403  81.1705 206.7412 0035524  54.7348 305.7190 15.06330467857625
Epoch (UTC): 30 September 2016 11:39:30
Eccentricity: 0.0035524
inclination: 81.1705°
perigee height: 523 km
apogee height: 572 km
right ascension of ascending node: 206.7412°
argument of perigee: 54.7348°
revolutions per day: 15.06330467
mean anomaly at epoch: 305.7190°
orbit number at epoch: 85762

The dashed part of the orbit path shows where the satellite is in the earth's shadow,  

DLR